| time (UTC) | temp F | wind direction | speed knots | gust knots | rain 1hr in | rain 24hr in | rain mn in | humidity % | barometer mb |
| 20260906055649 | 80 | 74 | 1.7 | 2.6 | 0.00 | 0.00 | 0.00 | 43 | 1016.9 |
| 20260906053657 | 81 | 96 | 1.7 | 3.5 | 0.00 | 0.00 | 0.00 | 42 | 1017.0 |
| 20260906052654 | 82 | 126 | 0.9 | 3.5 | 0.00 | 0.00 | 0.00 | 41 | 1016.9 |
| 20260906051704 | 82 | 144 | 0.9 | 3.5 | 0.00 | 0.00 | 0.00 | 41 | 1016.7 |
| 20260906050657 | 82 | 126 | 0.0 | 1.7 | 0.00 | 0.00 | 0.00 | 41 | 1017.6 |
| 20260906045651 | 83 | 128 | 0.9 | 2.6 | 0.00 | 0.00 | 0.00 | 41 | 1017.5 |
| 20260906044702 | 83 | 133 | 1.7 | 2.6 | 0.00 | 0.00 | 0.00 | 40 | 1016.7 |
| 20260906043653 | 84 | 137 | 2.6 | 3.5 | 0.00 | 0.00 | 0.00 | 40 | 1016.8 |
| 20260906042703 | 84 | 90 | 0.9 | 2.6 | 0.00 | 0.00 | 0.00 | 39 | 1016.7 |
| 20260906041656 | 85 | 80 | 0.0 | 2.6 | 0.00 | 0.00 | 0.00 | 38 | 1016.8 |
| 20260906040652 | 85 | 74 | 0.9 | 2.6 | 0.00 | 0.00 | 0.00 | 38 | 1016.8 |
| 20260906034701 | 86 | 75 | 0.9 | 3.5 | 0.00 | 0.00 | 0.00 | 38 | 1016.7 |
| 20260906032643 | 86 | 27 | 1.7 | 6.1 | 0.00 | 0.00 | 0.00 | 38 | 1016.5 |
| 20260906031645 | 86 | 11 | 4.3 | 7.8 | 0.00 | 0.00 | 0.00 | 38 | 1016.3 |
| 20260906030653 | 86 | 52 | 3.5 | 9.6 | 0.00 | 0.00 | 0.00 | 37 | 1016.4 |
| 20260906025649 | 86 | 360 | 7.8 | 10.4 | 0.00 | 0.00 | 0.00 | 37 | 1016.3 |
| 20260906024659 | 87 | 360 | 2.6 | 7.8 | 0.00 | 0.00 | 0.00 | 36 | 1016.2 |
| 20260906023650 | 87 | 350 | 2.6 | 5.2 | 0.00 | 0.00 | 0.00 | 35 | 1016.0 |
| 20260906021655 | 87 | 37 | 4.3 | 8.7 | 0.00 | 0.00 | 0.00 | 35 | 1015.9 |
| 20260906020649 | 86 | 25 | 5.2 | 9.6 | 0.00 | 0.00 | 0.00 | 35 | 1015.8 |
| 20260906015642 | 87 | 25 | 7.8 | 12.2 | 0.00 | 0.00 | 0.00 | 35 | 1015.8 |
| 20260906013651 | 89 | 355 | 10.4 | 13.9 | 0.00 | 0.00 | 0.00 | 31 | 1015.4 |
| 20260906012656 | 90 | 5 | 9.6 | 15.6 | 0.00 | 0.00 | 0.00 | 30 | 1015.5 |
| 20260906011654 | 92 | 328 | 7.8 | 13.0 | 0.00 | 0.00 | 0.00 | 29 | 1015.4 |
| 20260906010649 | 93 | 66 | 2.6 | 7.0 | 0.00 | 0.00 | 0.00 | 28 | 1015.1 |
| 20260906005643 | 94 | 62 | 6.1 | 9.6 | 0.00 | 0.00 | 0.00 | 27 | 1015.2 |
| 20260906004652 | 94 | 76 | 3.5 | 7.0 | 0.00 | 0.00 | 0.00 | 27 | 1015.1 |
| 20260906003641 | 95 | 63 | 4.3 | 7.0 | 0.00 | 0.00 | 0.00 | 25 | 1015.0 |
| 20260906000649 | 97 | 290 | 0.9 | 6.1 | 0.00 | 0.00 | 0.00 | 24 | 1015.1 |
| 20260905234647 | 96 | 80 | 0.9 | 6.1 | 0.00 | 0.00 | 0.00 | 25 | 1015.0 |
| 20260905233646 | 96 | 103 | 2.6 | 7.0 | 0.00 | 0.00 | 0.00 | 25 | 1015.0 |
| 20260905232639 | 96 | 100 | 0.9 | 7.0 | 0.00 | 0.00 | 0.00 | 25 | 1015.1 |
| 20260905231655 | 97 | 282 | 2.6 | 7.0 | 0.00 | 0.00 | 0.00 | 25 | 1015.2 |
| 20260905230647 | 97 | 289 | 3.5 | 7.8 | 0.00 | 0.00 | 0.00 | 25 | 1015.1 |
| 20260905225655 | 97 | 197 | 1.7 | 7.8 | 0.00 | 0.00 | 0.00 | 25 | 1015.1 |
| 20260905224650 | 97 | 284 | 1.7 | 5.2 | 0.00 | 0.00 | 0.00 | 25 | 1015.0 |
| 20260905223641 | 96 | 211 | 4.3 | 8.7 | 0.00 | 0.00 | 0.00 | 26 | 1015.3 |
| 20260905221644 | 97 | 303 | 3.5 | 7.0 | 0.00 | 0.00 | 0.00 | 26 | 1015.5 |
| 20260905220652 | 96 | 257 | 4.3 | 11.3 | 0.00 | 0.00 | 0.00 | 26 | 1015.4 |
| 20260905214646 | 96 | 17 | 4.3 | 7.8 | 0.00 | 0.00 | 0.00 | 26 | 1015.7 |
| 20260905213643 | 95 | 350 | 2.6 | 7.8 | 0.00 | 0.00 | 0.00 | 26 | 1015.9 |
| 20260905212656 | 95 | 276 | 4.3 | 8.7 | 0.00 | 0.00 | 0.00 | 26 | 1016.2 |
| 20260905210643 | 96 | 314 | 2.6 | 7.0 | 0.00 | 0.00 | 0.00 | 26 | 1016.6 |
| 20260905205652 | 95 | 13 | 2.6 | 8.7 | 0.00 | 0.00 | 0.00 | 27 | 1016.7 |
| 20260905204640 | 94 | 262 | 4.3 | 7.0 | 0.00 | 0.00 | 0.00 | 28 | 1017.1 |
| 20260905203638 | 94 | 217 | 4.3 | 8.7 | 0.00 | 0.00 | 0.00 | 29 | 1017.1 |
| 20260905202648 | 94 | 296 | 1.7 | 5.2 | 0.00 | 0.00 | 0.00 | 29 | 1017.2 |
| 20260905201642 | 93 | 76 | 2.6 | 5.2 | 0.00 | 0.00 | 0.00 | 28 | 1017.2 |
| 20260905200639 | 93 | 274 | 0.9 | 8.7 | 0.00 | 0.00 | 0.00 | 29 | 1017.3 |
| 20260905195652 | 93 | 259 | 2.6 | 10.4 | 0.00 | 0.00 | 0.00 | 30 | 1017.6 |
| 20260905194639 | 94 | 180 | 3.5 | 10.4 | 0.00 | 0.00 | 0.00 | 31 | 1017.5 |
| 20260905193653 | 93 | 76 | 1.7 | 9.6 | 0.00 | 0.00 | 0.00 | 32 | 1017.7 |
| 20260905192651 | 92 | 156 | 4.3 | 9.6 | 0.00 | 0.00 | 0.00 | 33 | 1017.9 |
| 20260905191641 | 92 | 198 | 2.6 | 7.8 | 0.00 | 0.00 | 0.00 | 34 | 1018.2 |
| 20260905190649 | 92 | 294 | 3.5 | 7.8 | 0.00 | 0.00 | 0.00 | 34 | 1018.2 |
| 20260905185643 | 91 | 196 | 5.2 | 8.7 | 0.00 | 0.00 | 0.00 | 35 | 1018.5 |
| 20260905184636 | 91 | 248 | 3.5 | 6.1 | 0.00 | 0.00 | 0.00 | 37 | 1018.7 |
| 20260905183651 | 90 | 267 | 3.5 | 8.7 | 0.00 | 0.00 | 0.00 | 38 | 1018.7 |
| 20260905182647 | 90 | 275 | 0.9 | 7.8 | 0.00 | 0.00 | 0.00 | 37 | 1019.0 |
| 20260905181733 | 89 | 263 | 1.7 | 6.1 | 0.00 | 0.00 | 0.00 | 38 | 1019.1 |
| 20260905175744 | 88 | 225 | 1.7 | 8.7 | 0.00 | 0.00 | 0.00 | 41 | 1019.3 |
| 20260905174741 | 87 | 250 | 2.6 | 8.7 | 0.00 | 0.00 | 0.00 | 42 | 1019.5 |
| 20260905173750 | 87 | 238 | 2.6 | 6.1 | 0.00 | 0.00 | 0.00 | 42 | 1019.5 |
| 20260905172740 | 87 | 222 | 0.9 | 7.0 | 0.00 | 0.00 | 0.00 | 42 | 1019.7 |
| 20260905170735 | 85 | 28 | 1.7 | 3.5 | 0.00 | 0.00 | 0.00 | 45 | 1019.7 |
| 20260905165748 | 84 | 298 | 2.6 | 5.2 | 0.00 | 0.00 | 0.00 | 46 | 1019.8 |
| 20260905164743 | 84 | 338 | 0.9 | 5.2 | 0.00 | 0.00 | 0.00 | 47 | 1019.7 |
| 20260905163742 | 83 | 348 | 1.7 | 5.2 | 0.00 | 0.00 | 0.00 | 49 | 1019.9 |
| 20260905162744 | 82 | 56 | 0.9 | 5.2 | 0.00 | 0.00 | 0.00 | 50 | 1019.9 |
| 20260905161746 | 82 | 265 | 0.0 | 6.1 | 0.00 | 0.00 | 0.00 | 51 | 1020.0 |
| 20260905155747 | 81 | 262 | 1.7 | 3.5 | 0.00 | 0.00 | 0.00 | 52 | 1020.1 |
| 20260905154736 | 81 | 200 | 2.6 | 5.2 | 0.00 | 0.00 | 0.00 | 54 | 1020.3 |
| 20260905153730 | 80 | 252 | 0.0 | 4.3 | 0.00 | 0.00 | 0.00 | 55 | 1020.2 |
| 20260905152738 | 80 | 191 | 2.6 | 6.1 | 0.00 | 0.00 | 0.00 | 57 | 1020.2 |
| 20260905151732 | 79 | 250 | 2.6 | 4.3 | 0.00 | 0.00 | 0.00 | 57 | 1020.2 |
| 20260905150744 | 79 | 246 | 2.6 | 6.1 | 0.00 | 0.00 | 0.00 | 57 | 1020.2 |
| 20260905145736 | 79 | 239 | 2.6 | 6.1 | 0.00 | 0.00 | 0.00 | 58 | 1020.1 |
| 20260905144745 | 78 | 206 | 4.3 | 7.0 | 0.00 | 0.00 | 0.00 | 60 | 1020.1 |
| 20260905143750 | 77 | 208 | 3.5 | 6.1 | 0.00 | 0.00 | 0.00 | 62 | 1020.1 |
| 20260905142745 | 76 | 205 | 4.3 | 6.1 | 0.00 | 0.01 | 0.00 | 64 | 1020.1 |
| 20260905140733 | 74 | 151 | 1.7 | 5.2 | 0.00 | 0.01 | 0.00 | 68 | 1019.8 |
| 20260905135730 | 73 | 187 | 2.6 | 4.3 | 0.00 | 0.01 | 0.00 | 69 | 1019.8 |
| 20260905134741 | 73 | 184 | 3.5 | 5.2 | 0.00 | 0.01 | 0.00 | 69 | 1019.6 |
| 20260905133738 | 72 | 184 | 2.6 | 5.2 | 0.00 | 0.01 | 0.00 | 69 | 1019.5 |
| 20260905130745 | 72 | 198 | 3.5 | 7.0 | 0.00 | 0.02 | 0.00 | 69 | 1019.3 |
| 20260905125740 | 71 | 173 | 4.3 | 8.7 | 0.00 | 0.02 | 0.00 | 68 | 1019.3 |
| 20260905124732 | 71 | 179 | 4.3 | 7.0 | 0.00 | 0.02 | 0.00 | 68 | 1019.2 |
| 20260905123744 | 71 | 180 | 4.3 | 6.1 | 0.00 | 0.02 | 0.00 | 68 | 1019.0 |
| 20260905122739 | 71 | 177 | 2.6 | 7.0 | 0.00 | 0.03 | 0.00 | 68 | 1019.0 |
| 20260905121734 | 71 | 191 | 4.3 | 8.7 | 0.00 | 0.03 | 0.00 | 68 | 1019.0 |
| 20260905120725 | 72 | 196 | 4.3 | 9.6 | 0.00 | 0.03 | 0.00 | 67 | 1018.9 |
| 20260905115740 | 71 | 175 | 6.1 | 9.6 | 0.00 | 0.03 | 0.00 | 67 | 1018.1 |
| 20260905114733 | 71 | 188 | 4.3 | 7.0 | 0.00 | 0.03 | 0.00 | 64 | 1018.3 |
| 20260905113726 | 71 | 175 | 0.9 | 1.7 | 0.00 | 0.03 | 0.00 | 63 | 1018.0 |
| 20260905112742 | 71 | 175 | 0.9 | 3.5 | 0.00 | 0.03 | 0.00 | 62 | 1017.7 |
| 20260905111740 | 71 | 137 | 1.7 | 3.5 | 0.00 | 0.03 | 0.00 | 63 | 1017.8 |
| 20260905110737 | 71 | 130 | 1.7 | 5.2 | 0.00 | 0.03 | 0.00 | 64 | 1017.6 |
| 20260905105728 | 71 | 141 | 2.6 | 4.3 | 0.00 | 0.03 | 0.00 | 63 | 1017.6 |
| 20260905104729 | 72 | 136 | 1.7 | 2.6 | 0.00 | 0.03 | 0.00 | 63 | 1017.6 |
| 20260905103726 | 72 | 98 | 1.7 | 3.5 | 0.00 | 0.03 | 0.00 | 61 | 1018.4 |
| 20260905102736 | 73 | 78 | 1.7 | 2.6 | 0.00 | 0.03 | 0.00 | 62 | 1018.5 |
| 20260905101725 | 74 | 49 | 0.0 | 1.7 | 0.00 | 0.03 | 0.00 | 61 | 1018.3 |
| 20260905100724 | 74 | 49 | 0.0 | 0.0 | 0.00 | 0.03 | 0.00 | 61 | 1018.2 |
| 20260905095734 | 74 | 49 | 0.0 | 1.7 | 0.00 | 0.03 | 0.00 | 62 | 1018.1 |
| 20260905094732 | 74 | 49 | 0.0 | 2.6 | 0.00 | 0.03 | 0.00 | 62 | 1018.0 |
| 20260905093729 | 74 | 73 | 0.9 | 2.6 | 0.00 | 0.03 | 0.00 | 62 | 1018.0 |
| 20260905092723 | 74 | 61 | 0.9 | 2.6 | 0.00 | 0.03 | 0.00 | 61 | 1017.9 |
| 20260905091733 | 74 | 71 | 0.9 | 1.7 | 0.00 | 0.03 | 0.00 | 60 | 1018.1 |
| 20260905090739 | 75 | 69 | 0.0 | 1.7 | 0.00 | 0.03 | 0.00 | 60 | 1018.0 |
| 20260905084730 | 75 | 57 | 0.0 | 2.6 | 0.00 | 0.03 | 0.00 | 60 | 1017.9 |
| 20260905083723 | 75 | 57 | 0.0 | 2.6 | 0.00 | 0.03 | 0.00 | 60 | 1018.1 |
| 20260905082733 | 75 | 57 | 1.7 | 2.6 | 0.00 | 0.03 | 0.00 | 59 | 1017.9 |
| 20260905075728 | 76 | 34 | 1.7 | 2.6 | 0.00 | 0.03 | 0.00 | 59 | 1018.0 |
| 20260905074725 | 76 | 335 | 0.0 | 0.9 | 0.00 | 0.03 | 0.00 | 57 | 1018.2 |
| 20260905072728 | 77 | 335 | 0.0 | 1.7 | 0.00 | 0.03 | 0.00 | 56 | 1018.3 |
| 20260905071726 | 77 | 344 | 0.0 | 0.9 | 0.00 | 0.03 | 0.00 | 56 | 1018.4 |
| 20260905070735 | 77 | 344 | 0.0 | 1.7 | 0.00 | 0.03 | 0.00 | 55 | 1018.2 |
| 20260905065721 | 78 | 28 | 0.9 | 1.7 | 0.00 | 0.03 | 0.00 | 55 | 1018.3 |
| 20260905064720 | 78 | 40 | 1.7 | 2.6 | 0.00 | 0.03 | 0.00 | 56 | 1018.1 |
| 20260905062736 | 78 | 33 | 1.7 | 3.5 | 0.00 | 0.03 | 0.00 | 55 | 1018.4 |
| 20260905061731 | 78 | 58 | 1.7 | 4.3 | 0.00 | 0.03 | 0.00 | 55 | 1018.4 |